Back to catalog

SL-6 R/B(2)

AliveHEO
NORAD 17147·ROCKET BODY·🇷🇺 Russia

Launched Nov 20, 1986 from Plesetsk Cosmodrome

Loading…

Next Passes (next 24 hours)

TLE

FreshSource: Space-Track

Epoch: Sep 10, 2026, 10:17 UTC

1 17147U 86091D   26253.42878990 -.00000637  00000-0  00000-0 0  9996
2 17147  71.4041  47.5604 5607401 324.4218   8.5904  2.03996980296539

Track SL-6 R/B(2) in real time with AllMySat

Download on the App Store